• Em Portugal
  • Lista de países
  • Para 7 dias
  • Temperatura da água
  • Mapas de satélite
  • Mapa do tempo
  • Widgets de tempo
  • user-avatar
    Iniciar Sessão

    Previsão horária em Georgetown

    Hoje, 21 Fevereiro, Quarta-feira

    Tempo Temperatura Precipitação Vento Pressão Humidade
    00:00 +28°C° 0 mm 3 m/s 731 mmHg 30%
    01:00 +28°C° 0 mm 3 m/s 731 mmHg 29%
    02:00 +28°C° 0 mm 3 m/s 730 mmHg 29%
    03:00 +27°C° 0 mm 3 m/s 730 mmHg 28%
    04:00 +27°C° 0 mm 4 m/s 730 mmHg 27%
    05:00 +27°C° 0 mm 4 m/s 730 mmHg 26%
    06:00 +27°C° 0 mm 4 m/s 731 mmHg 25%
    07:00 +27°C° 0 mm 4 m/s 731 mmHg 24%
    08:00 +30°C° 0 mm 3 m/s 731 mmHg 23%
    09:00 +33°C° 0 mm 3 m/s 731 mmHg 21%
    10:00 +35°C° 0 mm 3 m/s 732 mmHg 20%
    11:00 +36°C° 0 mm 3 m/s 731 mmHg 19%
    12:00 +37°C° 0 mm 3 m/s 730 mmHg 18%
    13:00 +38°C° 0 mm 3 m/s 730 mmHg 18%
    14:00 +38°C° 0 mm 3 m/s 729 mmHg 18%
    15:00 +38°C° 0 mm 4 m/s 729 mmHg 19%
    16:00 +37°C° 0 mm 4 m/s 728 mmHg 20%
    17:00 +35°C° 0 mm 3 m/s 728 mmHg 22%
    18:00 +33°C° 0 mm 3 m/s 728 mmHg 24%
    19:00 +30°C° 0 mm 3 m/s 728 mmHg 26%
    20:00 +30°C° 0 mm 2 m/s 729 mmHg 27%
    21:00 +29°C° 0 mm 2 m/s 729 mmHg 28%
    22:00 +28°C° 0 mm 2 m/s 730 mmHg 29%
    23:00 +28°C° 0 mm 2 m/s 729 mmHg 29%

    Amanhã, 22 Fevereiro, Quinta-feira

    Tempo Temperatura Precipitação Vento Pressão Humidade
    00:00 +28°C° 0 mm 2 m/s 729 mmHg 29%
    01:00 +28°C° 0 mm 2 m/s 729 mmHg 30%
    02:00 +27°C° 0 mm 2 m/s 729 mmHg 30%
    03:00 +27°C° 0 mm 2 m/s 728 mmHg 30%
    04:00 +27°C° 0 mm 2 m/s 728 mmHg 30%
    05:00 +27°C° 0 mm 2 m/s 728 mmHg 29%
    06:00 +28°C° 0 mm 1 m/s 728 mmHg 29%
    07:00 +28°C° 0 mm 1 m/s 729 mmHg 28%
    08:00 +31°C° 0 mm 2 m/s 729 mmHg 26%
    09:00 +35°C° 0 mm 2 m/s 730 mmHg 24%
    10:00 +37°C° 0 mm 2 m/s 730 mmHg 22%
    11:00 +38°C° 0 mm 2 m/s 729 mmHg 21%
    12:00 +39°C° 0 mm 3 m/s 729 mmHg 20%
    13:00 +40°C° 0 mm 3 m/s 728 mmHg 19%
    14:00 +39°C° 0 mm 3 m/s 728 mmHg 19%
    15:00 +40°C° 0 mm 4 m/s 727 mmHg 19%
    16:00 +40°C° 0 mm 4 m/s 727 mmHg 19%
    17:00 +37°C° 0 mm 4 m/s 727 mmHg 21%
    18:00 +35°C° 0 mm 4 m/s 728 mmHg 22%
    19:00 +33°C° 0 mm 4 m/s 728 mmHg 23%
    20:00 +33°C° 0 mm 4 m/s 728 mmHg 23%
    21:00 +33°C° 0 mm 4 m/s 729 mmHg 23%
    22:00 +32°C° 0 mm 4 m/s 729 mmHg 22%
    23:00 +31°C° 0 mm 3 m/s 729 mmHg 23%

    Depois de amanhã, 23 Fevereiro, Sexta-feira

    Tempo Temperatura Precipitação Vento Pressão Humidade
    00:00 +31°C° 0 mm 3 m/s 729 mmHg 23%
    01:00 +31°C° 0 mm 3 m/s 728 mmHg 23%
    02:00 +31°C° 0 mm 3 m/s 728 mmHg 23%
    03:00 +31°C° 0 mm 3 m/s 728 mmHg 24%
    04:00 +32°C° 0 mm 4 m/s 728 mmHg 24%
    05:00 +32°C° 0 mm 4 m/s 729 mmHg 30%
    06:00 +30°C° 0 mm 4 m/s 729 mmHg 36%
    07:00 +29°C° 0 mm 4 m/s 730 mmHg 42%
    08:00 +32°C° 0 mm 4 m/s 730 mmHg 41%
    09:00 +34°C° 0 mm 4 m/s 731 mmHg 40%
    10:00 +35°C° 0 mm 4 m/s 731 mmHg 39%
    11:00 +36°C° 0 mm 5 m/s 731 mmHg 37%
    12:00 +37°C° 0 mm 5 m/s 730 mmHg 36%
    13:00 +37°C° 0 mm 5 m/s 729 mmHg 34%
    14:00 +39°C° 0 mm 5 m/s 729 mmHg 32%
    15:00 +39°C° 0 mm 5 m/s 728 mmHg 30%
    16:00 +39°C° 0 mm 5 m/s 728 mmHg 28%
    17:00 +37°C° 0 mm 5 m/s 728 mmHg 30%
    18:00 +35°C° 0 mm 4 m/s 729 mmHg 32%
    19:00 +33°C° 0 mm 4 m/s 729 mmHg 34%
    20:00 +33°C° 0 mm 3 m/s 730 mmHg 33%
    21:00 +33°C° 0 mm 3 m/s 730 mmHg 32%
    22:00 +33°C° 0 mm 3 m/s 730 mmHg 31%
    23:00 +31°C° 0 mm 3 m/s 730 mmHg 31%

    24 Fevereiro, Sábado

    Tempo Temperatura Precipitação Vento Pressão Humidade
    00:00 +32°C° 0 mm 4 m/s 730 mmHg 31%
    01:00 +32°C° 0 mm 5 m/s 730 mmHg 32%
    02:00 +30°C° 0 mm 5 m/s 730 mmHg 30%
    03:00 +30°C° 0 mm 5 m/s 730 mmHg 29%
    04:00 +29°C° 0 mm 5 m/s 729 mmHg 27%
    05:00 +29°C° 0 mm 5 m/s 730 mmHg 28%
    06:00 +29°C° 0 mm 6 m/s 731 mmHg 28%
    07:00 +28°C° 0 mm 6 m/s 731 mmHg 28%
    08:00 +32°C° 0 mm 6 m/s 732 mmHg 26%
    09:00 +34°C° 0 mm 6 m/s 732 mmHg 23%
    10:00 +36°C° 0 mm 6 m/s 732 mmHg 21%
    11:00 +37°C° 0 mm 5 m/s 732 mmHg 20%
    12:00 +40°C° 0 mm 5 m/s 731 mmHg 20%
    13:00 +41°C° 0 mm 4 m/s 730 mmHg 19%
    14:00 +41°C° 0 mm 4 m/s 730 mmHg 19%
    15:00 +41°C° 0 mm 4 m/s 729 mmHg 19%
    16:00 +41°C° 0 mm 5 m/s 729 mmHg 19%
    17:00 +39°C° 0 mm 5 m/s 729 mmHg 20%
    18:00 +36°C° 0 mm 5 m/s 730 mmHg 20%
    19:00 +35°C° 0 mm 5 m/s 730 mmHg 20%
    20:00 +34°C° 0 mm 5 m/s 731 mmHg 20%
    21:00 +33°C° 0 mm 6 m/s 731 mmHg 20%
    22:00 +32°C° 0 mm 6 m/s 732 mmHg 20%
    23:00 +30°C° 0 mm 6 m/s 731 mmHg 20%

    25 Fevereiro, Domingo

    Tempo Temperatura Precipitação Vento Pressão Humidade
    00:00 +29°C° 0 mm 7 m/s 731 mmHg 19%
    01:00 +29°C° 0 mm 7 m/s 731 mmHg 18%
    02:00 +28°C° 0 mm 7 m/s 731 mmHg 18%
    03:00 +28°C° 0 mm 7 m/s 731 mmHg 17%
    04:00 +27°C° 0 mm 6 m/s 731 mmHg 17%
    05:00 +27°C° 0 mm 6 m/s 731 mmHg 17%
    06:00 +27°C° 0 mm 6 m/s 732 mmHg 17%
    07:00 +26°C° 0 mm 6 m/s 732 mmHg 17%
    08:00 +29°C° 0 mm 6 m/s 732 mmHg 16%
    09:00 +33°C° 0 mm 6 m/s 733 mmHg 15%
    10:00 +35°C° 0 mm 6 m/s 733 mmHg 14%
    11:00 +37°C° 0 mm 5 m/s 732 mmHg 14%
    12:00 +39°C° 0 mm 5 m/s 732 mmHg 15%
    13:00 +41°C° 0 mm 4 m/s 731 mmHg 15%
    14:00 +41°C° 0 mm 4 m/s 730 mmHg 16%
    15:00 +41°C° 0 mm 4 m/s 730 mmHg 18%
    16:00 +40°C° 0 mm 3 m/s 730 mmHg 19%
    17:00 +38°C° 0 mm 4 m/s 730 mmHg 19%
    18:00 +37°C° 0 mm 4 m/s 730 mmHg 19%
    19:00 +35°C° 0 mm 4 m/s 730 mmHg 19%
    20:00 +34°C° 0 mm 5 m/s 731 mmHg 19%
    21:00 +33°C° 0 mm 5 m/s 731 mmHg 20%
    22:00 +32°C° 0 mm 6 m/s 731 mmHg 20%
    23:00 +32°C° 0 mm 6 m/s 731 mmHg 21%

    26 Fevereiro, Segunda-feira

    Tempo Temperatura Precipitação Vento Pressão Humidade
    00:00 +30°C° 0 mm 6 m/s 731 mmHg 21%
    01:00 +30°C° 0 mm 5 m/s 730 mmHg 21%
    02:00 +29°C° 0 mm 5 m/s 730 mmHg 22%
    03:00 +29°C° 0 mm 5 m/s 730 mmHg 22%
    04:00 +29°C° 0 mm 5 m/s 730 mmHg 23%
    05:00 +28°C° 0 mm 5 m/s 731 mmHg 23%
    06:00 +28°C° 0 mm 5 m/s 731 mmHg 23%
    07:00 +28°C° 0 mm 4 m/s 731 mmHg 23%
    08:00 +32°C° 0 mm 4 m/s 732 mmHg 22%
    09:00 +34°C° 0 mm 4 m/s 732 mmHg 20%
    10:00 +37°C° 0 mm 4 m/s 732 mmHg 19%
    11:00 +38°C° 0 mm 4 m/s 732 mmHg 20%
    12:00 +40°C° 0 mm 4 m/s 731 mmHg 20%
    13:00 +40°C° 0 mm 3 m/s 731 mmHg 21%
    14:00 +40°C° 0 mm 3 m/s 730 mmHg 21%
    15:00 +41°C° 0 mm 4 m/s 730 mmHg 22%
    16:00 +41°C° 0 mm 4 m/s 729 mmHg 22%
    17:00 +38°C° 0 mm 4 m/s 730 mmHg 23%
    18:00 +36°C° 0 mm 4 m/s 730 mmHg 24%
    19:00 +35°C° 0 mm 4 m/s 730 mmHg 24%
    20:00 +34°C° 0 mm 4 m/s 731 mmHg 24%
    21:00 +33°C° 0 mm 5 m/s 731 mmHg 24%
    22:00 +33°C° 0 mm 5 m/s 731 mmHg 23%
    23:00 +32°C° 0 mm 5 m/s 731 mmHg 24%
    Mostrar mais